Location: Estes Park
(40.3770°N, 105.5210°W)
Time: 16:03:20
(UTC-06:00)

Envisat - Pass Details

Date: 11 October 2017
Orbit: 764 x 766 km, 98.2° (Epoch: 19 October)

Event Time Altitude Azimuth Distance (km) Brightness Sun altitude
Exits shadow 21:51:09 22° 291° (WNW) 1,611 5.2 -38.6°
Drops below altitude 10° 21:53:54 10° 321° (NW) 2,304 6.1 -39.1°
Sets 21:56:36 0° 334° (NNW) 3,234 6.9 -39.5°
